User: anonymous   Login
Location: Newark
(41.7772°N, 74.7403°W)
Time: 21:33:29
(UTC+00:00)
Language:

Transit 2A - Orbit

View from above orbital plane
View from above orbital plane
View from above satellite
View from above satellite

Ground track
Ground track

The orbit data is extracted from the following two-line orbital elements,

1    45U 60007A   20144.89012411 -.00000060  00000-0  12010-4 0  9994
2    45  66.6946  85.6592 0259268 332.0361  26.7003 14.33676780119186
Epoch (UTC): 23 May 2020 21:21:46
Eccentricity: 0.0259268
inclination: 66.6946°
perigee height: 594 km
apogee height: 965 km
right ascension of ascending node: 85.6592°
argument of perigee: 332.0361°
revolutions per day: 14.33676780
mean anomaly at epoch: 26.7003°
orbit number at epoch: 11918

The dashed part of the orbit path shows where the satellite is in the earth's shadow,  

DLR